Caslav, Czech Republic

11:15 PM CEST on October 18, 2017 (GMT +0200)
Caslav

Weather History for LKCV - March, 2014

Change the Weather History Date:

Saturday, March 8, 2014

  Actual Average Record
Temperature  
Mean Temperature 42 °F -  
Max Temperature 54 °F - - ()
Min Temperature 29 °F - - ()
Degree Days  
Heating Degree Days 24    
Moisture  
Dew Point 32 °F    
Average Humidity 71    
Maximum Humidity 94    
Minimum Humidity 30    
Precipitation  
Precipitation 0.00 in - - ()
Sea Level Pressure  
Sea Level Pressure 30.49 in    
Wind  
Wind Speed 2 mph ()    
Max Wind Speed 6 mph    
Max Gust Speed -    
Visibility 5.0 miles    
Events      
T = Trace of Precipitation, MM = Missing Value Source: Averaged Metar Reports

Daily Weather History Graph

Daily Weather History Graph

Search for Another Location

Airport or City:

Trip Planner

Search our weather history database for the weather conditions in past years. The results will help you decide how hot, cold, wet, or windy it might be!

Date:

Astronomy

Mar. 08, 2014 Rise Set
Actual Time 6:27 AM CET 5:51 PM CET
Civil Twilight 5:55 AM CET 6:24 PM CET
Nautical Twilight 5:18 AM CET 7:01 PM CET
Astronomical Twilight 4:40 AM CET 7:39 PM CET
Moon 10:18 AM CET (3/8) 1:10 AM CET (3/8)
Length of Visible Light 12h 28m
Length of Day
11h 24m
Waxing Crescent, 49% of the Moon is Illuminated
Mar 8
Waxing Crescent
Mar 8
First Quarter
Mar 16
Full
Mar 24
Last Quarter
Mar 30
New

Hourly Weather History & Observations

Time (CET) Temp. Windchill Dew Point Humidity Pressure Visibility Wind Dir Wind Speed Gust Speed Precip Events Conditions
12:00 AM 31 °F - 29 °F 89% 30.40 in 6 mi Calm Calm - -   Partly Cloudy
12:00 AM 30.2 °F - 28.4 °F 93% 30.33 in 6.2 mi Calm Calm - N/A   Scattered Clouds
1:00 AM 30 °F - 28 °F 88% 30.42 in 5 mi East 2.2 mph - -   Mist
1:00 AM 30.2 °F - 28.4 °F 93% 30.36 in 5.0 mi ESE 2.3 mph - N/A   Unknown
2:00 AM 31 °F - 29 °F 90% 30.42 in 5 mi SSW 2.2 mph - -   Mist
2:00 AM 30.2 °F - 28.4 °F 93% 30.36 in 5.0 mi SSW 2.3 mph - N/A   Unknown
3:00 AM 32 °F - 30 °F 91% 30.42 in 5 mi SE 2.2 mph - -   Mist
3:00 AM 32.0 °F - 30.2 °F 93% 30.36 in 5.0 mi SE 2.3 mph - N/A   Unknown
4:00 AM 32 °F - 29 °F 86% 30.44 in 5 mi NE 2.2 mph - -   Mist
4:00 AM 32.0 °F - 30.2 °F 93% 30.39 in 5.0 mi Variable 2.3 mph - N/A   Unknown
5:00 AM 32 °F - 31 °F 92% 30.46 in 5 mi SE 2.2 mph - -   Mist
5:00 AM 32.0 °F 28.7 °F 30.2 °F 93% 30.39 in 5.0 mi SSE 3.5 mph - N/A   Unknown
6:00 AM 30 °F - 29 °F 94% 30.50 in 4 mi WSW 2.2 mph - -   Mist
6:00 AM 30.2 °F - 28.4 °F 93% 30.42 in 3.7 mi WSW 2.3 mph - N/A   Unknown
6:40 AM 32.0 °F - 30.2 °F 93% 30.45 in 2.8 mi SSE 2.3 mph - N/A   Mist
7:00 AM 31 °F - 30 °F 93% 30.51 in 3 mi ESE 2.2 mph - -   Mist
7:00 AM 32.0 °F - 30.2 °F 93% 30.45 in 2.8 mi SE 2.3 mph - N/A   Mist
8:00 AM 32 °F - 31 °F 93% 30.53 in 3 mi East 2.2 mph - -   Mist
8:00 AM 32.0 °F - 30.2 °F 93% 30.48 in 2.8 mi East 2.3 mph - N/A   Mist
8:29 AM 33.8 °F - 32.0 °F 93% 30.48 in 3.1 mi Calm Calm - N/A   Mist
9:00 AM 38 °F - 34 °F 81% 30.55 in 3 mi SE 2.2 mph - -   Mist
9:00 AM 37.4 °F - 33.8 °F 87% 30.51 in 3.1 mi Calm Calm - N/A   Mist
10:00 AM 41 °F - 35 °F 73% 30.56 in 4 mi NNW 4.5 mph - -   Mist
10:00 AM 41.0 °F 38.0 °F 35.6 °F 81% 30.51 in 3.7 mi NW 4.6 mph - N/A   Unknown
11:00 AM 45 °F - 35 °F 59% 30.54 in 4 mi WNW 2.2 mph - -   Mist
11:00 AM 44.6 °F - 35.6 °F 71% 30.51 in 3.7 mi Variable 2.3 mph - N/A   Unknown
12:00 PM 49 °F - 37 °F 53% 30.54 in 4 mi NNW 4.5 mph - -   Mist
12:00 PM 48.2 °F - 37.4 °F 66% 30.51 in 4.3 mi NNW 4.6 mph - N/A   Unknown
1:00 PM 51 °F - 35 °F 41% 30.53 in 4 mi NW 4.5 mph - -   Haze
1:00 PM 51.8 °F - 35.6 °F 54% 30.51 in 4.3 mi WNW 5.8 mph - N/A   Unknown
2:00 PM 53 °F - 34 °F 36% 30.52 in 5 mi NNW 2.2 mph - -   Haze
2:00 PM 51.8 °F - 32.0 °F 47% 30.51 in 5.0 mi Variable 2.3 mph - N/A   Unknown
3:00 PM 54 °F - 33 °F 32% 30.52 in 5 mi WNW 2.2 mph - -   Haze
3:00 PM 53.6 °F - 32.0 °F 44% 30.51 in 5.0 mi NNW 3.5 mph - N/A   Unknown
4:00 PM 54 °F - 32 °F 30% 30.52 in 6 mi NNW 2.2 mph - -   Clear
4:00 PM 53.6 °F - 32.0 °F 44% 30.51 in - NNW 3.5 mph - N/A   Clear
5:00 PM 53 °F - 33 °F 34% 30.52 in 6 mi West 4.5 mph - -  
5:00 PM 53.6 °F - 32.0 °F 44% 30.51 in 6.2 mi West 3.5 mph - N/A   Unknown
6:00 PM 49 °F - 31 °F 38% 30.54 in 6 mi NW 4.5 mph - -   Clear
6:00 PM 50.0 °F - 32.0 °F 50% 30.51 in - NW 4.6 mph - N/A   Clear
7:00 PM 45 °F - 31 °F 46% 30.55 in 9 mi SW 2.2 mph - -   Clear
7:00 PM 44.6 °F 43.1 °F 30.2 °F 57% 30.51 in - West 3.5 mph - N/A   Clear
8:00 PM 43 °F - 31 °F 52% 30.58 in 9 mi SSW 2.2 mph - -  
8:00 PM 42.8 °F - 32.0 °F 66% 30.54 in - SSW 1.2 mph - N/A   Clear
9:00 PM 39 °F - 31 °F 64% 30.59 in 9 mi SSW 2.2 mph - -  
9:00 PM 39.2 °F - 30.2 °F 70% 30.54 in - Calm Calm - N/A   Clear
10:00 PM 38 °F - 31 °F 67% 30.60 in 9 mi Calm Calm - -  
10:00 PM 37.4 °F - 30.2 °F 75% 30.54 in 6.2 mi Calm Calm - N/A   Unknown
11:00 PM 36 °F - 32 °F 78% 30.61 in 6 mi South 2.2 mph - -  
11:00 PM 35.6 °F - 30.2 °F 81% 30.57 in 6.2 mi South 2.3 mph - N/A   Unknown